Location: Bonac
(42.8765°N, 0.9753°E)
Time: 17:55:32
(UTC+00:00)

Cosmos 676 Rocket - Visible Passes

Search period start: 11 April 2026 00:00
Search period end: 21 April 2026 00:00
Orbit: 749 x 780 km, 74.0° (Epoch: 11 April)

Date Brightness Start Highest point End Pass type
(mag) Time Alt. Az. Time Alt. Az. Time Alt. Az.
11 Apr 6.0 01:29:37 10° NNW 01:31:21 21° NNW 01:31:21 21° NNW visible
11 Apr 6.7 23:12:47 10° NE 23:13:29 10° NE 23:13:29 10° NE visible
12 Apr 6.0 00:51:28 10° NNW 00:53:39 25° N 00:53:39 25° N visible
13 Apr 6.0 00:13:31 10° N 00:15:58 24° NNE 00:15:58 24° NNE visible
13 Apr 6.5 01:55:51 10° NW 01:56:08 11° NW 01:56:08 11° NW visible
13 Apr 6.2 23:35:48 10° N 23:38:19 20° NNE 23:38:19 20° NNE visible
14 Apr 6.2 01:17:14 10° NNW 01:18:29 17° NW 01:18:29 17° NW visible
14 Apr 6.4 22:58:29 10° NNE 23:00:42 15° NE 23:00:42 15° NE visible
15 Apr 6.0 00:38:55 10° NNW 00:40:52 23° NNW 00:40:52 23° NNW visible
16 Apr 5.9 00:00:49 10° NNW 00:03:16 27° N 00:03:16 27° N visible
16 Apr 5.9 23:22:54 10° N 23:25:41 26° NNE 23:25:41 26° NNE visible
17 Apr 6.4 01:05:01 10° NW 01:05:52 14° NW 01:05:52 14° NW visible
17 Apr 6.0 22:45:15 10° N 22:48:07 20° NE 22:48:07 20° NE visible
18 Apr 6.1 00:26:29 10° NNW 00:28:17 21° NW 00:28:17 21° NW visible
18 Apr 6.3 22:08:06 10° NNE 22:10:34 14° NE 22:10:34 14° NE visible
18 Apr 5.7 23:48:13 10° NNW 23:50:45 29° NNW 23:50:45 29° NNW visible
19 Apr 5.5 23:10:09 10° N 23:13:13 32° N 23:13:13 32° N visible
20 Apr 6.6 00:53:06 10° NW 00:53:24 11° NW 00:53:24 11° NW visible
20 Apr 5.6 22:32:18 10° N 22:35:43 28° NE 22:35:43 28° NE visible
